Time,TemperatureF,DewpointF,PressureIn,WindDirection,WindDirectionDegrees,WindSpeedMPH,WindSpeedGustMPH,Humidity,HourlyPrecipIn,Conditions,Clouds,dailyrainin,SoftwareType,DateUTC
2013-09-25 00:00:00,77.5,71.2,29.92,WNW,285,1.0,1.0,81,0.00,,,0.00,Wunderground v.1.15,2013-09-25 04:00:00,
2013-09-25 00:10:00,77.6,71.3,29.92,WSW,256,2.0,3.0,81,0.00,,,0.00,Wunderground v.1.15,2013-09-25 04:10:00,
2013-09-25 00:20:00,77.5,71.6,29.93,WNW,284,3.0,3.0,82,0.00,,,0.00,Wunderground v.1.15,2013-09-25 04:20:00,
2013-09-25 00:30:00,77.4,71.5,29.92,West,274,3.0,3.0,82,0.00,,,0.00,Wunderground v.1.15,2013-09-25 04:30:00,
2013-09-25 00:40:00,77.5,71.6,29.91,WSW,246,2.0,2.0,82,0.00,,,0.00,Wunderground v.1.15,2013-09-25 04:40:00,
2013-09-25 00:50:00,77.4,71.5,29.90,WSW,252,2.0,2.0,82,0.00,,,0.00,Wunderground v.1.15,2013-09-25 04:50:00,
2013-09-25 01:00:00,77.2,71.3,29.89,SSW,203,0.0,0.0,82,0.00,,,0.00,Wunderground v.1.15,2013-09-25 05:00:00,
2013-09-25 01:10:00,77.0,71.4,29.89,West,266,0.0,0.0,83,0.00,,,0.00,Wunderground v.1.15,2013-09-25 05:10:00,
2013-09-25 01:20:00,77.0,71.4,29.89,West,264,1.0,2.0,83,0.00,,,0.00,Wunderground v.1.15,2013-09-25 05:20:00,
2013-09-25 01:30:00,77.0,71.4,29.88,WSW,243,1.0,1.0,83,0.00,,,0.00,Wunderground v.1.15,2013-09-25 05:30:00,
2013-09-25 01:40:00,76.9,71.3,29.88,SSE,160,1.0,1.0,83,0.00,,,0.00,Wunderground v.1.15,2013-09-25 05:40:00,
2013-09-25 01:50:00,76.8,71.2,29.87,SSW,208,2.0,2.0,83,0.00,,,0.00,Wunderground v.1.15,2013-09-25 05:50:00,
2013-09-25 02:00:00,76.7,70.8,29.87,WSW,245,2.0,2.0,82,0.00,,,0.00,Wunderground v.1.15,2013-09-25 06:00:00,
2013-09-25 02:10:00,76.6,70.7,29.87,WSW,248,1.0,1.0,82,0.00,,,0.00,Wunderground v.1.15,2013-09-25 06:10:00,
2013-09-25 02:20:00,76.5,70.6,29.86,SW,225,0.0,0.0,82,0.00,,,0.00,Wunderground v.1.15,2013-09-25 06:20:00,
2013-09-25 02:30:00,76.4,70.9,29.87,WSW,253,0.0,0.0,83,0.00,,,0.00,Wunderground v.1.15,2013-09-25 06:30:00,
2013-09-25 02:40:00,76.1,70.6,29.86,WSW,253,0.0,0.0,83,0.00,,,0.00,Wunderground v.1.15,2013-09-25 06:40:00,
2013-09-25 02:50:00,75.8,70.6,29.86,SSW,200,0.0,0.0,84,0.00,,,0.00,Wunderground v.1.15,2013-09-25 06:50:00,
2013-09-25 03:00:00,75.5,70.7,29.86,SSW,200,0.0,0.0,85,0.00,,,0.00,Wunderground v.1.15,2013-09-25 07:00:00,
2013-09-25 03:10:00,75.4,70.6,29.86,WSW,249,0.0,0.0,85,0.00,,,0.00,Wunderground v.1.15,2013-09-25 07:10:00,
2013-09-25 03:20:00,75.5,70.7,29.86,WSW,257,0.0,0.0,85,0.00,,,0.00,Wunderground v.1.15,2013-09-25 07:20:00,
2013-09-25 03:30:00,75.3,70.8,29.86,WSW,252,0.0,0.0,86,0.00,,,0.00,Wunderground v.1.15,2013-09-25 07:30:00,
2013-09-25 03:40:00,75.0,70.5,29.85,SSW,204,0.0,0.0,86,0.00,,,0.00,Wunderground v.1.15,2013-09-25 07:40:00,
2013-09-25 03:50:00,74.9,70.4,29.85,SSW,200,0.0,0.0,86,0.00,,,0.00,Wunderground v.1.15,2013-09-25 07:50:00,
2013-09-25 04:00:00,74.9,70.4,29.85,SSW,193,0.0,0.0,86,0.00,,,0.00,Wunderground v.1.15,2013-09-25 08:00:00,
2013-09-25 04:10:00,75.0,70.2,29.85,SW,224,0.0,0.0,85,0.00,,,0.00,Wunderground v.1.15,2013-09-25 08:10:00,
2013-09-25 04:20:00,75.1,70.3,29.85,SW,236,0.0,0.0,85,0.00,,,0.00,Wunderground v.1.15,2013-09-25 08:20:00,
2013-09-25 04:30:00,75.1,70.3,29.85,SW,229,0.0,0.0,85,0.00,,,0.00,Wunderground v.1.15,2013-09-25 08:30:00,
2013-09-25 04:40:00,75.0,70.2,29.85,SSW,212,0.0,0.0,85,0.00,,,0.00,Wunderground v.1.15,2013-09-25 08:40:00,
2013-09-25 04:50:00,75.1,70.3,29.85,SSW,212,0.0,0.0,85,0.00,,,0.00,Wunderground v.1.15,2013-09-25 08:50:00,
2013-09-25 05:00:00,74.9,70.4,29.85,SSW,212,0.0,0.0,86,0.00,,,0.00,Wunderground v.1.15,2013-09-25 09:00:00,
2013-09-25 05:10:00,74.9,70.4,29.85,SW,225,0.0,0.0,86,0.00,,,0.00,Wunderground v.1.15,2013-09-25 09:10:00,
2013-09-25 05:20:00,74.7,70.2,29.85,SW,226,0.0,0.0,86,0.00,,,0.00,Wunderground v.1.15,2013-09-25 09:20:00,
2013-09-25 05:30:00,74.4,70.3,29.85,SW,226,0.0,0.0,87,0.00,,,0.00,Wunderground v.1.15,2013-09-25 09:30:00,
2013-09-25 05:40:00,74.4,70.3,29.86,SW,225,0.0,0.0,87,0.00,,,0.00,Wunderground v.1.15,2013-09-25 09:40:00,
2013-09-25 05:50:00,74.5,70.7,29.86,SSW,203,0.0,0.0,88,0.00,,,0.00,Wunderground v.1.15,2013-09-25 09:50:00,
2013-09-25 06:00:00,74.7,70.9,29.86,South,190,0.0,0.0,88,0.00,,,0.00,Wunderground v.1.15,2013-09-25 10:00:00,
2013-09-25 06:10:00,74.7,70.9,29.86,South,191,0.0,0.0,88,0.00,,,0.00,Wunderground v.1.15,2013-09-25 10:10:00,
2013-09-25 06:20:00,74.6,70.8,29.87,South,190,0.0,0.0,88,0.00,,,0.00,Wunderground v.1.15,2013-09-25 10:20:00,
2013-09-25 06:30:00,74.6,70.8,29.87,South,190,0.0,0.0,88,0.00,,,0.00,Wunderground v.1.15,2013-09-25 10:30:00,
2013-09-25 06:40:00,74.6,70.8,29.87,South,190,0.0,0.0,88,0.00,,,0.00,Wunderground v.1.15,2013-09-25 10:40:00,
2013-09-25 06:50:00,74.5,71.0,29.88,South,190,0.0,0.0,89,0.00,,,0.00,Wunderground v.1.15,2013-09-25 10:50:00,
2013-09-25 07:00:00,74.5,71.0,29.88,South,190,0.0,0.0,89,0.00,,,0.00,Wunderground v.1.15,2013-09-25 11:00:00,
2013-09-25 07:10:00,74.5,71.0,29.88,South,190,0.0,0.0,89,0.00,,,0.00,Wunderground v.1.15,2013-09-25 11:10:00,
2013-09-25 07:20:00,74.6,71.1,29.88,South,191,0.0,0.0,89,0.00,,,0.00,Wunderground v.1.15,2013-09-25 11:20:00,
2013-09-25 07:30:00,74.9,71.4,29.88,South,190,0.0,0.0,89,0.00,,,0.00,Wunderground v.1.15,2013-09-25 11:30:00,
2013-09-25 07:40:00,75.4,71.9,29.88,South,190,0.0,0.0,89,0.00,,,0.00,Wunderground v.1.15,2013-09-25 11:40:00,
2013-09-25 07:50:00,76.3,72.5,29.88,SSE,164,0.0,0.0,88,0.00,,,0.00,Wunderground v.1.15,2013-09-25 11:50:00,
2013-09-25 08:00:00,77.1,72.9,29.88,SSW,201,0.0,1.0,87,0.00,,,0.00,Wunderground v.1.15,2013-09-25 12:00:00,
2013-09-25 08:10:00,78.1,73.9,29.88,WSW,249,1.0,2.0,87,0.00,,,0.00,Wunderground v.1.15,2013-09-25 12:10:00,
2013-09-25 08:20:00,79.5,74.6,29.88,SW,224,0.0,0.0,85,0.00,,,0.00,Wunderground v.1.15,2013-09-25 12:20:00,
2013-09-25 08:30:00,80.3,75.4,29.88,West,266,1.0,3.0,85,0.00,,,0.00,Wunderground v.1.15,2013-09-25 12:30:00,
2013-09-25 08:50:00,81.7,76.0,29.88,WNW,284,2.0,5.0,83,0.00,,,0.00,Wunderground v.1.15,2013-09-25 12:50:00,
2013-09-25 09:00:00,82.1,76.4,29.88,West,266,3.0,3.0,83,0.00,,,0.00,Wunderground v.1.15,2013-09-25 13:00:00,
2013-09-25 09:10:00,83.0,76.6,29.89,SW,230,3.0,3.0,81,0.00,,,0.00,Wunderground v.1.15,2013-09-25 13:10:00,
2013-09-25 09:20:00,83.4,77.0,29.89,WSW,255,4.0,4.0,81,0.00,,,0.00,Wunderground v.1.15,2013-09-25 13:20:00,
2013-09-25 09:30:00,83.4,77.0,29.89,West,273,4.0,4.0,81,0.00,,,0.00,Wunderground v.1.15,2013-09-25 13:30:00,
2013-09-25 09:40:00,83.0,76.9,29.90,WNW,287,5.0,5.0,82,0.00,,,0.00,Wunderground v.1.15,2013-09-25 13:40:00,
2013-09-25 09:50:00,83.7,77.6,29.90,WSW,258,3.0,3.0,82,0.00,,,0.00,Wunderground v.1.15,2013-09-25 13:50:00,
2013-09-25 10:00:00,84.3,77.5,29.90,WSW,252,4.0,11.0,80,0.00,,,0.00,Wunderground v.1.15,2013-09-25 14:00:00,
2013-09-25 10:10:00,84.5,77.6,29.90,WSW,242,5.0,8.0,80,0.00,,,0.00,Wunderground v.1.15,2013-09-25 14:10:00,
2013-09-25 10:20:00,85.0,77.8,29.90,WNW,293,5.0,5.0,79,0.00,,,0.00,Wunderground v.1.15,2013-09-25 14:20:00,
2013-09-25 10:30:00,86.4,77.5,29.90,West,278,3.0,3.0,75,0.00,,,0.00,Wunderground v.1.15,2013-09-25 14:30:00,
2013-09-25 10:40:00,87.1,77.4,29.90,WNW,295,5.0,5.0,73,0.00,,,0.00,Wunderground v.1.15,2013-09-25 14:40:00,
2013-09-25 10:50:00,86.7,77.0,29.90,SE,141,6.0,6.0,73,0.00,,,0.00,Wunderground v.1.15,2013-09-25 14:50:00,
2013-09-25 11:00:00,87.4,77.3,29.90,SW,217,6.0,6.0,72,0.00,,,0.00,Wunderground v.1.15,2013-09-25 15:00:00,
2013-09-25 11:10:00,88.4,76.9,29.90,West,272,5.0,9.0,69,0.00,,,0.00,Wunderground v.1.15,2013-09-25 15:10:00,
2013-09-25 11:30:00,85.7,76.5,29.90,NW,314,6.0,6.0,74,0.00,,,0.00,Wunderground v.1.15,2013-09-25 15:30:00,
2013-09-25 11:40:00,85.4,78.9,29.90,WNW,290,6.0,6.0,81,0.00,,,0.00,Wunderground v.1.15,2013-09-25 15:40:00,
2013-09-25 11:50:00,84.7,75.5,29.90,West,262,6.0,6.0,74,0.00,,,0.00,Wunderground v.1.15,2013-09-25 15:50:00,
2013-09-25 12:00:00,81.8,74.3,29.89,WSW,250,5.0,5.0,78,0.00,,,0.00,Wunderground v.1.15,2013-09-25 16:00:00,
2013-09-25 12:10:00,81.4,76.1,29.89,SW,230,4.0,6.0,84,0.00,,,0.01,Wunderground v.1.15,2013-09-25 16:10:00,
2013-09-25 12:20:00,81.4,75.4,29.89,WSW,252,3.0,3.0,82,0.00,,,0.01,Wunderground v.1.15,2013-09-25 16:20:00,
2013-09-25 12:30:00,81.4,75.0,29.88,SW,233,2.0,2.0,81,0.00,,,0.01,Wunderground v.1.15,2013-09-25 16:30:00,
2013-09-25 12:40:00,81.1,75.4,29.90,SSW,205,3.0,5.0,83,0.00,,,0.01,Wunderground v.1.15,2013-09-25 16:40:00,
2013-09-25 12:50:00,81.3,76.4,29.89,WNW,286,4.0,4.0,85,0.00,,,0.01,Wunderground v.1.15,2013-09-25 16:50:00,
2013-09-25 13:00:00,81.5,76.6,29.88,WSW,245,3.0,3.0,85,0.00,,,0.01,Wunderground v.1.15,2013-09-25 17:00:00,
2013-09-25 13:10:00,81.5,76.2,29.88,SW,214,3.0,3.0,84,0.00,,,0.01,Wunderground v.1.15,2013-09-25 17:10:00,
2013-09-25 13:20:00,81.5,76.2,29.87,West,274,5.0,9.0,84,0.00,,,0.01,Wunderground v.1.15,2013-09-25 17:20:00,
2013-09-25 13:30:00,81.8,75.0,29.87,NW,310,5.0,5.0,80,0.00,,,0.01,Wunderground v.1.15,2013-09-25 17:30:00,
2013-09-25 13:40:00,81.7,74.9,29.87,NNW,332,6.0,9.0,80,0.00,,,0.01,Wunderground v.1.15,2013-09-25 17:40:00,
2013-09-25 13:50:00,80.4,74.4,29.87,NNW,340,7.0,7.0,82,0.00,,,0.01,Wunderground v.1.15,2013-09-25 17:50:00,
2013-09-25 14:00:00,80.5,74.9,29.87,NW,312,6.0,6.0,83,0.00,,,0.01,Wunderground v.1.15,2013-09-25 18:00:00,
2013-09-25 14:10:00,80.6,74.6,29.86,WNW,293,7.0,7.0,82,0.00,,,0.01,Wunderground v.1.15,2013-09-25 18:10:00,
2013-09-25 14:20:00,81.0,74.6,29.86,West,271,6.0,6.0,81,0.00,,,0.01,Wunderground v.1.15,2013-09-25 18:20:00,
2013-09-25 14:30:00,82.3,75.5,29.85,SE,146,6.0,6.0,80,0.00,,,0.01,Wunderground v.1.15,2013-09-25 18:30:00,
2013-09-25 14:40:00,83.5,75.5,29.85,WSW,242,5.0,6.0,77,0.00,,,0.01,Wunderground v.1.15,2013-09-25 18:40:00,
2013-09-25 14:49:00,84.3,75.9,29.85,SW,229,5.0,5.0,76,0.00,,,0.01,Wunderground v.1.15,2013-09-25 18:49:00,
2013-09-25 15:00:00,85.1,75.1,29.85,WNW,287,7.0,7.0,72,0.00,,,0.01,Wunderground v.1.15,2013-09-25 19:00:00,
2013-09-25 15:10:00,85.7,75.2,29.85,West,279,6.0,10.0,71,0.00,,,0.01,Wunderground v.1.15,2013-09-25 19:10:00,
2013-09-25 15:19:00,87.0,75.2,29.85,South,189,6.0,6.0,68,0.00,,,0.01,Wunderground v.1.15,2013-09-25 19:19:00,
2013-09-25 15:30:00,87.8,75.0,29.84,NE,51,6.0,6.0,66,0.00,,,0.01,Wunderground v.1.15,2013-09-25 19:30:00,
2013-09-25 15:40:00,87.9,74.2,29.84,SW,236,8.0,8.0,64,0.00,,,0.01,Wunderground v.1.15,2013-09-25 19:40:00,
2013-09-25 15:50:00,88.3,74.6,29.84,SSW,204,6.0,6.0,64,0.00,,,0.01,Wunderground v.1.15,2013-09-25 19:50:00,
2013-09-25 16:00:00,88.6,73.9,29.83,WNW,287,4.0,8.0,62,0.00,,,0.01,Wunderground v.1.15,2013-09-25 20:00:00,
2013-09-25 16:10:00,88.2,73.0,29.83,North,352,5.0,5.0,61,0.00,,,0.01,Wunderground v.1.15,2013-09-25 20:10:00,
2013-09-25 16:20:00,86.9,72.8,29.82,South,184,5.0,10.0,63,0.00,,,0.01,Wunderground v.1.15,2013-09-25 20:20:00,
2013-09-25 16:29:00,85.9,73.2,29.82,WSW,239,7.0,7.0,66,0.00,,,0.01,Wunderground v.1.15,2013-09-25 20:29:00,
2013-09-25 16:40:00,85.4,73.2,29.82,SW,218,4.0,9.0,67,0.00,,,0.01,Wunderground v.1.15,2013-09-25 20:40:00,
2013-09-25 16:50:00,85.0,73.3,29.82,WSW,252,4.0,6.0,68,0.00,,,0.01,Wunderground v.1.15,2013-09-25 20:50:00,
2013-09-25 16:59:00,84.6,73.7,29.83,WSW,255,4.0,4.0,70,0.00,,,0.01,Wunderground v.1.15,2013-09-25 20:59:00,
2013-09-25 17:10:00,84.2,73.3,29.83,West,278,4.0,4.0,70,0.00,,,0.01,Wunderground v.1.15,2013-09-25 21:10:00,
2013-09-25 17:20:00,84.0,73.2,29.83,SW,233,4.0,4.0,70,0.00,,,0.01,Wunderground v.1.15,2013-09-25 21:20:00,
2013-09-25 17:30:00,84.0,73.6,29.84,WNW,283,3.0,3.0,71,0.00,,,0.01,Wunderground v.1.15,2013-09-25 21:30:00,
2013-09-25 17:40:00,84.1,73.3,29.83,West,277,2.0,2.0,70,0.00,,,0.01,Wunderground v.1.15,2013-09-25 21:40:00,
2013-09-25 17:50:00,84.1,73.7,29.83,SW,236,3.0,3.0,71,0.00,,,0.01,Wunderground v.1.15,2013-09-25 21:50:00,
2013-09-25 18:00:00,84.4,73.5,29.83,WSW,249,2.0,2.0,70,0.00,,,0.01,Wunderground v.1.15,2013-09-25 22:00:00,
2013-09-25 18:09:00,84.7,73.8,29.84,WSW,242,2.0,4.0,70,0.00,,,0.01,Wunderground v.1.15,2013-09-25 22:09:00,
2013-09-25 18:20:00,84.3,73.4,29.83,West,262,3.0,3.0,70,0.00,,,0.01,Wunderground v.1.15,2013-09-25 22:20:00,
2013-09-25 18:30:00,84.5,74.1,29.84,West,259,2.0,2.0,71,0.00,,,0.01,Wunderground v.1.15,2013-09-25 22:30:00,
2013-09-25 18:39:00,84.3,73.9,29.84,SW,232,2.0,2.0,71,0.00,,,0.01,Wunderground v.1.15,2013-09-25 22:39:00,
2013-09-25 18:50:00,84.3,73.9,29.84,West,262,2.0,2.0,71,0.00,,,0.01,Wunderground v.1.15,2013-09-25 22:50:00,
2013-09-25 19:00:00,84.0,74.0,29.85,WNW,291,3.0,3.0,72,0.00,,,0.01,Wunderground v.1.15,2013-09-25 23:00:00,
2013-09-25 19:09:00,83.6,74.0,29.84,WSW,246,2.0,2.0,73,0.00,,,0.01,Wunderground v.1.15,2013-09-25 23:09:00,
2013-09-25 19:20:00,83.3,74.1,29.84,SSE,165,1.0,1.0,74,0.00,,,0.01,Wunderground v.1.15,2013-09-25 23:20:00,
2013-09-25 19:30:00,83.0,74.3,29.84,South,184,1.0,2.0,75,0.00,,,0.01,Wunderground v.1.15,2013-09-25 23:30:00,
2013-09-25 19:39:00,82.6,74.3,29.84,SW,219,1.0,1.0,76,0.00,,,0.01,Wunderground v.1.15,2013-09-25 23:39:00,
2013-09-25 19:50:00,82.2,74.3,29.84,SSW,204,1.0,1.0,77,0.00,,,0.01,Wunderground v.1.15,2013-09-25 23:50:00,
2013-09-25 20:00:00,81.9,74.4,29.84,SSW,204,1.0,2.0,78,0.00,,,0.01,Wunderground v.1.15,2013-09-26 00:00:00,
2013-09-25 20:10:00,81.7,74.5,29.85,WSW,240,1.0,1.0,79,0.00,,,0.01,Wunderground v.1.15,2013-09-26 00:10:00,
2013-09-25 20:20:00,81.6,74.8,29.85,SSW,210,2.0,2.0,80,0.00,,,0.01,Wunderground v.1.15,2013-09-26 00:20:00,
2013-09-25 20:30:00,81.5,74.7,29.85,SW,214,1.0,1.0,80,0.00,,,0.01,Wunderground v.1.15,2013-09-26 00:30:00,
2013-09-25 20:40:00,81.3,74.5,29.85,SW,228,1.0,1.0,80,0.00,,,0.01,Wunderground v.1.15,2013-09-26 00:40:00,
2013-09-25 20:50:00,81.0,74.6,29.85,SSW,211,1.0,1.0,81,0.00,,,0.01,Wunderground v.1.15,2013-09-26 00:50:00,
2013-09-25 21:00:00,80.8,74.8,29.85,SW,214,1.0,1.0,82,0.00,,,0.01,Wunderground v.1.15,2013-09-26 01:00:00,
2013-09-25 21:09:00,80.6,74.6,29.85,SW,229,0.0,0.0,82,0.00,,,0.01,Wunderground v.1.15,2013-09-26 01:09:00,
2013-09-25 21:20:00,80.4,74.4,29.85,SW,228,0.0,1.0,82,0.00,,,0.01,Wunderground v.1.15,2013-09-26 01:20:00,
2013-09-25 21:30:00,80.3,74.7,29.86,WSW,239,1.0,1.0,83,0.00,,,0.01,Wunderground v.1.15,2013-09-26 01:30:00,
2013-09-25 21:39:00,80.2,74.6,29.86,WSW,252,1.0,1.0,83,0.00,,,0.01,Wunderground v.1.15,2013-09-26 01:39:00,
2013-09-25 21:50:00,80.0,74.4,29.86,WSW,246,1.0,1.0,83,0.00,,,0.01,Wunderground v.1.15,2013-09-26 01:50:00,
2013-09-25 22:00:00,79.9,74.6,29.87,WSW,256,1.0,1.0,84,0.00,,,0.01,Wunderground v.1.15,2013-09-26 02:00:00,
2013-09-25 22:10:00,79.8,74.5,29.87,West,264,0.0,1.0,84,0.00,,,0.01,Wunderground v.1.15,2013-09-26 02:10:00,
2013-09-25 22:20:00,79.6,74.3,29.87,West,259,1.0,1.0,84,0.00,,,0.01,Wunderground v.1.15,2013-09-26 02:20:00,
2013-09-25 22:30:00,79.4,74.5,29.87,West,276,1.0,1.0,85,0.00,,,0.01,Wunderground v.1.15,2013-09-26 02:30:00,
2013-09-25 22:40:00,79.2,74.3,29.87,West,262,0.0,0.0,85,0.00,,,0.01,Wunderground v.1.15,2013-09-26 02:40:00,
2013-09-25 22:50:00,78.9,74.4,29.87,West,268,0.0,0.0,86,0.00,,,0.01,Wunderground v.1.15,2013-09-26 02:50:00,
2013-09-25 23:00:00,78.7,74.2,29.86,West,266,0.0,0.0,86,0.00,,,0.01,Wunderground v.1.15,2013-09-26 03:00:00,
2013-09-25 23:10:00,78.5,74.3,29.86,West,267,0.0,0.0,87,0.00,,,0.01,Wunderground v.1.15,2013-09-26 03:10:00,
2013-09-25 23:20:00,78.3,74.1,29.86,West,267,0.0,0.0,87,0.00,,,0.01,Wunderground v.1.15,2013-09-26 03:20:00,
2013-09-25 23:30:00,77.9,73.7,29.86,West,267,0.0,0.0,87,0.00,,,0.01,Wunderground v.1.15,2013-09-26 03:30:00,
2013-09-25 23:40:00,78.0,74.2,29.86,West,267,0.0,0.0,88,0.00,,,0.01,Wunderground v.1.15,2013-09-26 03:40:00,
2013-09-25 23:50:00,77.9,74.1,29.86,West,267,0.0,0.0,88,0.00,,,0.01,Wunderground v.1.15,2013-09-26 03:50:00,